Location: Caltech
(34.1382°N, 118.1253°W)
Time: 05:11:43
(UTC-07:00)

CZ-2C R/B - Visible Passes

Search period start: 23 March 2017 00:00
Search period end: 02 April 2017 00:00
Orbit: 669 x 784 km, 98.1° (Epoch: 21 March)

Date Brightness Start Highest point End Pass type
(mag) Time Alt. Az. Time Alt. Az. Time Alt. Az.
23 Mar 5.9 05:33:48 10° ENE 05:35:21 11° E 05:36:54 10° ESE visible
24 Mar 4.3 06:21:13 10° NNE 06:26:03 38° E 06:30:48 10° SSE visible
25 Mar 5.8 05:35:47 10° ENE 05:37:46 12° E 05:39:44 10° ESE visible
27 Mar 5.7 05:37:53 10° ENE 05:40:11 13° E 05:42:28 10° ESE visible
29 Mar 5.6 05:40:01 10° ENE 05:42:36 14° E 05:45:09 10° ESE visible
31 Mar 5.6 05:42:12 10° ENE 05:45:00 15° E 05:47:46 10° SE visible
